Torna al catalogo

ONEWEB-0331

AttivoComunicazioniPO
NORAD 49198·PAYLOAD·🇬🇧 United Kingdom

Lanciato Sep 14, 2021 da Baikonur Cosmodrome

Loading…

Prossimi Passaggi (prossime 24 ore)

TLE

AggiornatoSource: CelesTrak SupGP

Epoca: Sep 14, 2026, 15:05 UTC

1 49198C 21083N   26257.62897407  .00001902  00000+0  48301-2 0  2576
2 49198  87.9174 317.6837 0002109 107.1794   4.6911 13.18687522    10

Traccia ONEWEB-0331 in tempo reale con AllMySat

Download on the App Store